Time,TemperatureF,DewpointF,PressureIn,WindDirection,WindDirectionDegrees,WindSpeedMPH,WindSpeedGustMPH,Humidity,HourlyPrecipIn,Conditions,Clouds,dailyrainin,SoftwareType,DateUTC
2013-05-22 00:01:00,75.3,67.6,29.51,South,180,0.0,0.0,77,0.00,,,0.00,WUHU216HW,2013-05-22 04:01:00,
2013-05-22 00:02:00,75.3,67.6,29.51,SSE,158,0.0,0.0,77,0.00,,,0.00,WUHU216HW,2013-05-22 04:02:00,
2013-05-22 00:03:00,75.3,67.6,29.51,South,180,2.0,2.0,77,0.00,,,0.00,WUHU216HW,2013-05-22 04:03:00,
2013-05-22 00:08:00,75.3,67.6,29.51,SSE,158,0.0,2.0,77,0.00,,,0.00,WUHU216HW,2013-05-22 04:08:00,
2013-05-22 00:13:00,75.3,68.0,29.51,SE,135,0.0,0.0,78,0.00,,,0.00,WUHU216HW,2013-05-22 04:13:00,
2013-05-22 00:18:00,75.2,67.9,29.51,SE,135,0.0,0.0,78,0.00,,,0.00,WUHU216HW,2013-05-22 04:18:00,
2013-05-22 00:23:00,75.0,68.1,29.51,WSW,248,0.0,0.0,79,0.00,,,0.00,WUHU216HW,2013-05-22 04:23:00,
2013-05-22 00:28:00,75.0,67.7,29.51,SE,135,0.0,0.0,78,0.00,,,0.00,WUHU216HW,2013-05-22 04:28:00,
2013-05-22 00:33:00,75.0,68.1,29.51,SE,135,0.0,0.0,79,0.00,,,0.00,WUHU216HW,2013-05-22 04:33:00,
2013-05-22 00:38:00,74.8,67.9,29.51,ESE,113,0.0,0.0,79,0.00,,,0.00,WUHU216HW,2013-05-22 04:38:00,
2013-05-22 00:43:00,74.8,67.9,29.51,SE,135,0.0,0.0,79,0.00,,,0.00,WUHU216HW,2013-05-22 04:43:00,
2013-05-22 00:48:00,74.8,67.9,29.51,ESE,113,0.0,0.0,79,0.00,,,0.00,WUHU216HW,2013-05-22 04:48:00,
2013-05-22 00:53:00,74.6,67.7,29.51,SE,135,0.0,0.0,79,0.00,,,0.00,WUHU216HW,2013-05-22 04:53:00,
2013-05-22 00:59:00,74.6,67.7,29.50,ESE,113,0.0,0.0,79,0.00,,,0.00,WUHU216HW,2013-05-22 04:59:00,
2013-05-22 01:03:00,74.4,67.6,29.50,East,90,0.0,0.0,79,0.00,,,0.00,WUHU216HW,2013-05-22 05:03:00,
2013-05-22 01:09:00,74.4,67.6,29.50,SE,135,0.0,0.0,79,0.00,,,0.00,WUHU216HW,2013-05-22 05:09:00,
2013-05-22 01:14:00,74.4,67.6,29.49,ENE,68,0.0,3.1,79,0.00,,,0.00,WUHU216HW,2013-05-22 05:14:00,
2013-05-22 01:19:00,74.4,68.0,29.50,ESE,113,0.0,3.1,80,0.00,,,0.00,WUHU216HW,2013-05-22 05:19:00,
2013-05-22 01:24:00,74.4,68.0,29.49,East,90,0.0,0.0,80,0.00,,,0.00,WUHU216HW,2013-05-22 05:24:00,
2013-05-22 01:29:00,74.4,68.0,29.49,ENE,68,0.0,0.0,80,0.00,,,0.00,WUHU216HW,2013-05-22 05:29:00,
2013-05-22 01:34:00,74.4,68.0,29.49,SE,135,0.0,0.0,80,0.00,,,0.00,WUHU216HW,2013-05-22 05:34:00,
2013-05-22 01:39:00,74.4,68.0,29.49,SE,135,0.0,0.0,80,0.00,,,0.00,WUHU216HW,2013-05-22 05:39:00,
2013-05-22 01:44:00,74.4,68.0,29.49,SE,135,0.0,0.0,80,0.00,,,0.00,WUHU216HW,2013-05-22 05:44:00,
2013-05-22 01:49:00,74.4,68.0,29.49,East,90,0.0,0.0,80,0.00,,,0.00,WUHU216HW,2013-05-22 05:49:00,
2013-05-22 01:54:00,74.4,68.0,29.49,ESE,113,0.0,0.0,80,0.00,,,0.00,WUHU216HW,2013-05-22 05:54:00,
2013-05-22 01:59:00,74.3,67.8,29.49,ESE,113,0.0,0.0,80,0.00,,,0.00,WUHU216HW,2013-05-22 05:59:00,
2013-05-22 02:04:00,74.3,67.8,29.49,ESE,113,0.0,0.0,80,0.00,,,0.00,WUHU216HW,2013-05-22 06:04:00,
2013-05-22 02:09:00,74.1,67.6,29.48,ESE,113,0.0,0.0,80,0.00,,,0.00,WUHU216HW,2013-05-22 06:09:00,
2013-05-22 02:14:00,74.1,67.6,29.49,SSE,158,0.0,0.0,80,0.00,,,0.00,WUHU216HW,2013-05-22 06:14:00,
2013-05-22 02:19:00,74.1,67.6,29.49,ESE,113,0.0,0.0,80,0.00,,,0.00,WUHU216HW,2013-05-22 06:19:00,
2013-05-22 02:24:00,73.9,67.4,29.49,ESE,113,0.0,0.0,80,0.00,,,0.00,WUHU216HW,2013-05-22 06:24:00,
2013-05-22 02:29:00,73.9,67.4,29.49,East,90,0.0,0.0,80,0.00,,,0.00,WUHU216HW,2013-05-22 06:29:00,
2013-05-22 02:34:00,73.9,67.2,29.49,ESE,113,0.0,0.0,80,0.00,,,0.00,WUHU216HW,2013-05-22 06:34:00,
2013-05-22 02:39:00,73.7,67.6,29.49,East,90,0.0,0.0,81,0.00,,,0.00,WUHU216HW,2013-05-22 06:39:00,
2013-05-22 02:44:00,73.7,67.6,29.49,East,90,0.0,0.0,81,0.00,,,0.00,WUHU216HW,2013-05-22 06:44:00,
2013-05-22 02:49:00,73.5,67.4,29.49,East,90,0.0,0.0,81,0.00,,,0.00,WUHU216HW,2013-05-22 06:49:00,
2013-05-22 02:54:00,73.4,67.2,29.49,ESE,113,0.0,0.0,81,0.00,,,0.00,WUHU216HW,2013-05-22 06:54:00,
2013-05-22 02:59:00,73.2,67.4,29.49,ESE,113,0.0,0.0,82,0.00,,,0.00,WUHU216HW,2013-05-22 06:59:00,
2013-05-22 03:04:00,73.2,67.4,29.49,East,90,0.0,0.0,82,0.00,,,0.00,WUHU216HW,2013-05-22 07:04:00,
2013-05-22 03:09:00,73.2,67.4,29.49,ESE,113,0.0,0.0,82,0.00,,,0.00,WUHU216HW,2013-05-22 07:09:00,
2013-05-22 03:14:00,73.0,67.2,29.49,ESE,113,0.0,0.0,82,0.00,,,0.00,WUHU216HW,2013-05-22 07:14:00,
2013-05-22 03:19:00,73.0,67.2,29.49,ESE,113,0.0,0.0,82,0.00,,,0.00,WUHU216HW,2013-05-22 07:19:00,
2013-05-22 03:24:00,72.8,67.0,29.49,ESE,113,0.0,0.0,82,0.00,,,0.00,WUHU216HW,2013-05-22 07:24:00,
2013-05-22 03:29:00,72.6,66.8,29.49,ESE,113,0.0,0.0,82,0.00,,,0.00,WUHU216HW,2013-05-22 07:29:00,
2013-05-22 03:34:00,72.5,67.0,29.49,ESE,113,0.0,0.0,83,0.00,,,0.00,WUHU216HW,2013-05-22 07:34:00,
2013-05-22 03:39:00,72.3,66.8,29.49,ESE,113,0.0,0.0,83,0.00,,,0.00,WUHU216HW,2013-05-22 07:39:00,
2013-05-22 03:44:00,72.3,66.8,29.49,ESE,113,0.0,0.0,83,0.00,,,0.00,WUHU216HW,2013-05-22 07:44:00,
2013-05-22 03:49:00,72.1,66.6,29.49,ESE,113,0.0,0.0,83,0.00,,,0.00,WUHU216HW,2013-05-22 07:49:00,
2013-05-22 03:54:00,72.1,67.0,29.49,ESE,113,0.0,0.0,84,0.00,,,0.00,WUHU216HW,2013-05-22 07:54:00,
2013-05-22 03:59:00,71.9,66.8,29.48,ESE,113,0.0,0.0,84,0.00,,,0.00,WUHU216HW,2013-05-22 07:59:00,
2013-05-22 04:04:00,71.7,66.6,29.48,ENE,68,0.0,0.0,84,0.00,,,0.00,WUHU216HW,2013-05-22 08:04:00,
2013-05-22 04:09:00,71.7,67.0,29.49,ENE,68,0.0,0.0,85,0.00,,,0.00,WUHU216HW,2013-05-22 08:09:00,
2013-05-22 04:14:00,71.4,66.8,29.48,ENE,68,0.0,0.0,85,0.00,,,0.00,WUHU216HW,2013-05-22 08:14:00,
2013-05-22 04:19:00,71.2,66.4,29.48,NE,45,0.0,0.0,85,0.00,,,0.00,WUHU216HW,2013-05-22 08:19:00,
2013-05-22 04:24:00,71.2,66.4,29.48,ENE,68,0.0,0.0,85,0.00,,,0.00,WUHU216HW,2013-05-22 08:24:00,
2013-05-22 04:29:00,70.8,66.1,29.48,ENE,68,0.0,0.0,85,0.00,,,0.00,WUHU216HW,2013-05-22 08:29:00,
2013-05-22 04:34:00,70.7,65.9,29.47,ENE,68,0.0,0.0,85,0.00,,,0.00,WUHU216HW,2013-05-22 08:34:00,
2013-05-22 04:39:00,70.3,65.9,29.47,ENE,68,0.0,0.0,86,0.00,,,0.00,WUHU216HW,2013-05-22 08:39:00,
2013-05-22 04:44:00,70.1,65.7,29.46,ENE,68,0.0,0.0,86,0.00,,,0.00,WUHU216HW,2013-05-22 08:44:00,
2013-05-22 04:49:00,69.9,65.3,29.47,ENE,68,0.0,0.0,86,0.00,,,0.00,WUHU216HW,2013-05-22 08:49:00,
2013-05-22 04:54:00,69.6,65.1,29.47,ENE,68,0.0,0.0,86,0.00,,,0.00,WUHU216HW,2013-05-22 08:54:00,
2013-05-22 04:59:00,69.4,65.0,29.47,ENE,68,0.0,0.0,86,0.00,,,0.00,WUHU216HW,2013-05-22 08:59:00,
2013-05-22 05:04:00,69.2,64.8,29.47,ENE,68,0.0,0.0,86,0.00,,,0.00,WUHU216HW,2013-05-22 09:04:00,
2013-05-22 05:09:00,69.0,65.0,29.47,ENE,68,0.0,0.0,87,0.00,,,0.00,WUHU216HW,2013-05-22 09:09:00,
2013-05-22 05:14:00,68.7,64.8,29.48,ENE,68,0.0,0.0,87,0.00,,,0.00,WUHU216HW,2013-05-22 09:14:00,
2013-05-22 05:19:00,68.7,64.6,29.48,ENE,68,0.0,0.0,87,0.00,,,0.00,WUHU216HW,2013-05-22 09:19:00,
2013-05-22 05:24:00,68.5,64.4,29.48,ENE,68,0.0,0.0,87,0.00,,,0.00,WUHU216HW,2013-05-22 09:24:00,
2013-05-22 05:29:00,68.3,64.3,29.49,ENE,68,0.0,0.0,87,0.00,,,0.00,WUHU216HW,2013-05-22 09:29:00,
2013-05-22 05:34:00,68.1,64.1,29.49,ENE,68,0.0,0.0,87,0.00,,,0.00,WUHU216HW,2013-05-22 09:34:00,
2013-05-22 05:39:00,68.1,64.4,29.49,ENE,68,0.0,0.0,88,0.00,,,0.00,WUHU216HW,2013-05-22 09:39:00,
2013-05-22 05:44:00,67.8,64.1,29.49,ENE,68,0.0,0.0,88,0.00,,,0.00,WUHU216HW,2013-05-22 09:44:00,
2013-05-22 05:49:00,67.8,64.1,29.49,ENE,68,0.0,0.0,88,0.00,,,0.00,WUHU216HW,2013-05-22 09:49:00,
2013-05-22 05:54:00,67.6,63.9,29.50,ENE,68,0.0,0.0,88,0.00,,,0.00,WUHU216HW,2013-05-22 09:54:00,
2013-05-22 05:59:00,67.6,63.9,29.50,ENE,68,0.0,0.0,88,0.00,,,0.00,WUHU216HW,2013-05-22 09:59:00,
2013-05-22 06:04:00,67.2,63.8,29.50,ENE,68,0.0,0.0,89,0.00,,,0.00,WUHU216HW,2013-05-22 10:04:00,
2013-05-22 06:09:00,67.2,63.8,29.51,ENE,68,0.0,0.0,89,0.00,,,0.00,WUHU216HW,2013-05-22 10:09:00,
2013-05-22 06:14:00,67.2,63.8,29.51,ENE,68,0.0,0.0,89,0.00,,,0.00,WUHU216HW,2013-05-22 10:14:00,
2013-05-22 06:19:00,67.2,63.8,29.51,ENE,68,0.0,0.0,89,0.00,,,0.00,WUHU216HW,2013-05-22 10:19:00,
2013-05-22 06:24:00,67.2,64.2,29.51,ENE,68,0.0,0.0,90,0.00,,,0.00,WUHU216HW,2013-05-22 10:24:00,
2013-05-22 06:29:00,67.6,64.5,29.51,ENE,68,0.0,0.0,90,0.00,,,0.00,WUHU216HW,2013-05-22 10:29:00,
2013-05-22 06:34:00,67.8,64.7,29.51,NE,45,0.0,0.0,90,0.00,,,0.00,WUHU216HW,2013-05-22 10:34:00,
2013-05-22 06:39:00,67.8,64.7,29.52,NE,45,0.0,0.0,90,0.00,,,0.00,WUHU216HW,2013-05-22 10:39:00,
2013-05-22 06:44:00,68.0,64.9,29.52,ENE,68,0.0,0.0,90,0.00,,,0.00,WUHU216HW,2013-05-22 10:44:00,
2013-05-22 06:49:00,68.1,65.1,29.51,ENE,68,0.0,0.0,90,0.00,,,0.00,WUHU216HW,2013-05-22 10:49:00,
2013-05-22 06:54:00,68.3,65.3,29.52,ENE,68,0.0,0.0,90,0.00,,,0.00,WUHU216HW,2013-05-22 10:54:00,
2013-05-22 06:59:00,68.7,65.6,29.52,ENE,68,0.0,0.0,90,0.00,,,0.00,WUHU216HW,2013-05-22 10:59:00,
2013-05-22 07:04:00,68.9,65.8,29.52,ENE,68,0.0,0.0,90,0.00,,,0.00,WUHU216HW,2013-05-22 11:04:00,
2013-05-22 07:09:00,69.0,66.0,29.53,ENE,68,0.0,0.0,90,0.00,,,0.00,WUHU216HW,2013-05-22 11:09:00,
2013-05-22 07:14:00,69.6,66.5,29.53,ENE,68,0.0,0.0,90,0.00,,,0.00,WUHU216HW,2013-05-22 11:14:00,
2013-05-22 07:19:00,69.9,66.9,29.53,ENE,68,0.0,0.0,90,0.00,,,0.00,WUHU216HW,2013-05-22 11:19:00,
2013-05-22 07:24:00,70.5,67.4,29.53,ENE,68,0.0,0.0,90,0.00,,,0.00,WUHU216HW,2013-05-22 11:24:00,
2013-05-22 07:29:00,71.2,67.8,29.53,ENE,68,0.0,0.0,89,0.00,,,0.00,WUHU216HW,2013-05-22 11:29:00,
2013-05-22 07:34:00,71.4,68.0,29.54,ENE,68,0.0,0.0,89,0.00,,,0.00,WUHU216HW,2013-05-22 11:34:00,
2013-05-22 07:39:00,72.1,68.5,29.54,ESE,113,0.0,0.0,88,0.00,,,0.00,WUHU216HW,2013-05-22 11:39:00,
2013-05-22 07:44:00,72.6,68.5,29.54,ESE,113,0.0,0.0,87,0.00,,,0.00,WUHU216HW,2013-05-22 11:44:00,
2013-05-22 07:50:00,73.2,68.7,29.54,ESE,113,0.0,0.0,86,0.00,,,0.00,WUHU216HW,2013-05-22 11:50:00,
2013-05-22 07:55:00,73.5,68.8,29.54,North,0,0.0,0.0,85,0.00,,,0.00,WUHU216HW,2013-05-22 11:55:00,
2013-05-22 08:00:00,74.1,69.3,29.54,ESE,113,0.0,0.0,85,0.00,,,0.00,WUHU216HW,2013-05-22 12:00:00,
2013-05-22 08:05:00,74.3,69.1,29.54,SSE,158,0.0,0.0,84,0.00,,,0.00,WUHU216HW,2013-05-22 12:05:00,
2013-05-22 08:10:00,74.8,69.3,29.53,SSE,158,0.0,0.0,83,0.00,,,0.00,WUHU216HW,2013-05-22 12:10:00,
2013-05-22 08:15:00,75.0,69.2,29.53,SSW,203,0.0,0.0,83,0.00,,,0.00,WUHU216HW,2013-05-22 12:15:00,
2013-05-22 08:20:00,75.3,69.2,29.54,SW,225,0.0,0.0,81,0.00,,,0.00,WUHU216HW,2013-05-22 12:20:00,
2013-05-22 08:25:00,75.7,69.5,29.54,SSW,203,0.0,0.0,81,0.00,,,0.00,WUHU216HW,2013-05-22 12:25:00,
2013-05-22 08:30:00,75.9,69.3,29.54,ESE,113,0.0,0.0,80,0.00,,,0.00,WUHU216HW,2013-05-22 12:30:00,
2013-05-22 08:35:00,76.2,69.6,29.53,SSE,158,0.0,0.0,80,0.00,,,0.00,WUHU216HW,2013-05-22 12:35:00,
2013-05-22 08:40:00,76.8,69.7,29.54,SSE,158,0.0,0.0,79,0.00,,,0.00,WUHU216HW,2013-05-22 12:40:00,
2013-05-22 08:45:00,76.8,69.5,29.54,SW,225,0.0,0.0,78,0.00,,,0.00,WUHU216HW,2013-05-22 12:45:00,
2013-05-22 08:50:00,77.5,69.7,29.54,WSW,248,0.0,0.0,77,0.00,,,0.00,WUHU216HW,2013-05-22 12:50:00,
2013-05-22 08:55:00,78.4,70.1,29.54,SW,225,0.0,0.0,76,0.00,,,0.00,WUHU216HW,2013-05-22 12:55:00,
2013-05-22 09:00:00,79.5,70.8,29.54,SSE,158,0.0,0.0,74,0.00,,,0.00,WUHU216HW,2013-05-22 13:00:00,
2013-05-22 09:05:00,80.7,70.9,29.54,SSW,203,0.0,0.0,72,0.00,,,0.00,WUHU216HW,2013-05-22 13:05:00,
2013-05-22 09:10:00,81.6,70.9,29.54,SW,225,0.0,0.0,70,0.00,,,0.00,WUHU216HW,2013-05-22 13:10:00,
2013-05-22 09:15:00,82.4,71.6,29.54,SSW,203,0.0,0.0,70,0.00,,,0.00,WUHU216HW,2013-05-22 13:15:00,
2013-05-22 09:20:00,83.4,71.6,29.54,SE,135,0.0,0.0,68,0.00,,,0.00,WUHU216HW,2013-05-22 13:20:00,
2013-05-22 09:25:00,84.3,71.7,29.54,SW,225,0.0,0.0,66,0.00,,,0.00,WUHU216HW,2013-05-22 13:25:00,
2013-05-22 09:30:00,84.9,71.3,29.54,WSW,248,0.0,0.0,64,0.00,,,0.00,WUHU216HW,2013-05-22 13:30:00,
2013-05-22 09:35:00,85.2,71.7,29.55,SW,225,0.0,0.0,64,0.00,,,0.00,WUHU216HW,2013-05-22 13:35:00,
2013-05-22 09:40:00,85.6,71.5,29.55,SSW,203,0.0,0.0,63,0.00,,,0.00,WUHU216HW,2013-05-22 13:40:00,
2013-05-22 09:45:00,86.1,71.1,29.54,South,180,0.0,0.0,61,0.00,,,0.00,WUHU216HW,2013-05-22 13:45:00,
2013-05-22 09:50:00,86.7,71.2,29.54,SSW,203,0.0,0.0,60,0.00,,,0.00,WUHU216HW,2013-05-22 13:50:00,
2013-05-22 09:55:00,87.0,71.6,29.54,SSW,203,0.0,0.0,60,0.00,,,0.00,WUHU216HW,2013-05-22 13:55:00,
2013-05-22 10:00:00,87.6,71.0,29.55,SW,225,0.0,0.0,58,0.00,,,0.00,WUHU216HW,2013-05-22 14:00:00,
2013-05-22 10:05:00,88.3,71.1,29.54,WSW,248,0.0,0.0,57,0.00,,,0.00,WUHU216HW,2013-05-22 14:05:00,
2013-05-22 10:10:00,88.7,70.4,29.54,SW,225,0.0,0.0,55,0.00,,,0.00,WUHU216HW,2013-05-22 14:10:00,
2013-05-22 10:15:00,89.0,70.9,29.55,SSE,158,0.0,0.0,55,0.00,,,0.00,WUHU216HW,2013-05-22 14:15:00,
2013-05-22 10:20:00,90.1,71.7,29.54,SSW,203,0.0,0.0,55,0.00,,,0.00,WUHU216HW,2013-05-22 14:20:00,
2013-05-22 10:25:00,90.8,69.0,29.54,SSE,158,0.0,0.0,49,0.00,,,0.00,WUHU216HW,2013-05-22 14:25:00,
2013-05-22 10:30:00,91.2,68.7,29.54,South,180,0.0,0.0,47,0.00,,,0.00,WUHU216HW,2013-05-22 14:30:00,
2013-05-22 10:35:00,91.9,69.3,29.54,South,180,0.0,0.0,48,0.00,,,0.00,WUHU216HW,2013-05-22 14:35:00,
2013-05-22 10:40:00,92.1,68.2,29.54,ESE,113,0.0,0.0,46,0.00,,,0.00,WUHU216HW,2013-05-22 14:40:00,
2013-05-22 10:45:00,92.4,68.5,29.53,SE,135,0.0,0.0,46,0.00,,,0.00,WUHU216HW,2013-05-22 14:45:00,
2013-05-22 10:50:00,92.8,68.2,29.54,SW,225,0.0,0.0,45,0.00,,,0.00,WUHU216HW,2013-05-22 14:50:00,
2013-05-22 10:55:00,92.8,67.5,29.54,SW,225,0.0,0.0,44,0.00,,,0.00,WUHU216HW,2013-05-22 14:55:00,
2013-05-22 11:00:00,92.8,66.9,29.53,South,180,0.0,0.0,43,0.00,,,0.00,WUHU216HW,2013-05-22 15:00:00,
2013-05-22 11:05:00,92.8,66.2,29.53,WSW,248,0.0,0.0,42,0.00,,,0.00,WUHU216HW,2013-05-22 15:05:00,
2013-05-22 11:10:00,93.0,67.7,29.54,WSW,248,0.0,0.0,44,0.00,,,0.00,WUHU216HW,2013-05-22 15:10:00,
2013-05-22 11:15:00,92.3,66.4,29.53,SE,135,0.0,0.0,43,0.00,,,0.00,WUHU216HW,2013-05-22 15:15:00,
2013-05-22 11:20:00,91.7,67.2,29.54,South,180,0.0,0.0,45,0.00,,,0.00,WUHU216HW,2013-05-22 15:20:00,
2013-05-22 11:26:00,91.2,67.4,29.54,SSW,203,0.0,0.0,46,0.00,,,0.00,WUHU216HW,2013-05-22 15:26:00,
2013-05-22 11:31:00,90.6,68.2,29.54,WSW,248,0.0,0.0,48,0.00,,,0.00,WUHU216HW,2013-05-22 15:31:00,
2013-05-22 11:36:00,90.3,67.2,29.54,SSE,158,0.0,0.0,47,0.00,,,0.00,WUHU216HW,2013-05-22 15:36:00,
2013-05-22 11:41:00,89.9,68.0,29.53,South,180,0.0,0.0,48,0.00,,,0.00,WUHU216HW,2013-05-22 15:41:00,
2013-05-22 11:46:00,89.7,66.7,29.54,WSW,248,0.0,0.0,47,0.00,,,0.00,WUHU216HW,2013-05-22 15:46:00,
2013-05-22 11:51:00,89.7,67.4,29.54,South,180,0.0,0.0,48,0.00,,,0.00,WUHU216HW,2013-05-22 15:51:00,
2013-05-22 11:56:00,90.1,67.7,29.53,ESE,113,0.0,0.0,48,0.00,,,0.00,WUHU216HW,2013-05-22 15:56:00,
2013-05-22 12:01:00,91.0,66.9,29.53,West,270,0.0,0.0,46,0.00,,,0.00,WUHU216HW,2013-05-22 16:01:00,
2013-05-22 12:06:00,91.4,68.0,29.54,South,180,0.0,0.0,47,0.00,,,0.00,WUHU216HW,2013-05-22 16:06:00,
2013-05-22 12:11:00,92.3,68.3,29.53,South,180,0.0,0.0,46,0.00,,,0.00,WUHU216HW,2013-05-22 16:11:00,
2013-05-22 12:16:00,93.0,68.3,29.53,SW,225,0.0,0.0,45,0.00,,,0.00,WUHU216HW,2013-05-22 16:16:00,
2013-05-22 12:21:00,93.2,68.5,29.52,SSE,158,0.0,0.0,45,0.00,,,0.00,WUHU216HW,2013-05-22 16:21:00,
2013-05-22 12:26:00,92.8,67.7,29.52,SSE,158,0.0,0.0,44,0.00,,,0.00,WUHU216HW,2013-05-22 16:26:00,
2013-05-22 12:31:00,93.0,67.7,29.52,West,270,0.0,0.0,44,0.00,,,0.00,WUHU216HW,2013-05-22 16:31:00,
2013-05-22 12:36:00,93.2,67.8,29.52,SE,135,0.0,0.0,44,0.00,,,0.00,WUHU216HW,2013-05-22 16:36:00,
2013-05-22 12:41:00,93.0,67.0,29.52,SE,135,0.0,0.0,43,0.00,,,0.00,WUHU216HW,2013-05-22 16:41:00,
2013-05-22 12:46:00,93.0,67.7,29.51,SSW,203,0.0,0.0,44,0.00,,,0.00,WUHU216HW,2013-05-22 16:46:00,
2013-05-22 12:51:00,93.5,69.5,29.51,South,180,0.0,0.0,46,0.00,,,0.00,WUHU216HW,2013-05-22 16:51:00,
2013-05-22 12:56:00,93.7,68.3,29.52,SW,225,0.0,0.0,44,0.00,,,0.00,WUHU216HW,2013-05-22 16:56:00,
2013-05-22 13:01:00,93.7,68.3,29.51,WNW,293,0.0,0.0,44,0.00,,,0.00,WUHU216HW,2013-05-22 17:01:00,
2013-05-22 13:07:00,93.9,68.5,29.50,SW,225,0.0,0.0,44,0.00,,,0.00,WUHU216HW,2013-05-22 17:07:00,
2013-05-22 13:12:00,93.9,69.2,29.51,SE,135,0.0,0.8,45,0.00,,,0.00,WUHU216HW,2013-05-22 17:12:00,
2013-05-22 13:17:00,94.1,69.3,29.51,SSW,203,0.0,0.8,45,0.00,,,0.00,WUHU216HW,2013-05-22 17:17:00,
2013-05-22 13:22:00,94.2,69.5,29.51,South,180,0.0,0.4,45,0.00,,,0.00,WUHU216HW,2013-05-22 17:22:00,
2013-05-22 13:27:00,94.1,69.3,29.51,ESE,113,0.0,0.8,45,0.00,,,0.00,WUHU216HW,2013-05-22 17:27:00,
2013-05-22 13:32:00,94.2,70.2,29.51,East,90,5.1,5.1,46,0.00,,,0.00,WUHU216HW,2013-05-22 17:32:00,
2013-05-22 13:37:00,94.1,68.7,29.50,East,90,4.4,5.1,44,0.00,,,0.00,WUHU216HW,2013-05-22 17:37:00,
2013-05-22 13:42:00,94.1,69.3,29.50,SSE,158,0.0,5.1,45,0.00,,,0.00,WUHU216HW,2013-05-22 17:42:00,
2013-05-22 13:47:00,94.2,70.2,29.50,SW,225,0.0,0.0,46,0.00,,,0.00,WUHU216HW,2013-05-22 17:47:00,
2013-05-22 13:52:00,94.6,69.2,29.50,NW,315,0.0,6.2,45,0.00,,,0.00,WUHU216HW,2013-05-22 17:52:00,
2013-05-22 13:57:00,94.8,70.0,29.50,SSE,158,0.0,6.2,45,0.00,,,0.00,WUHU216HW,2013-05-22 17:57:00,
2013-05-22 14:02:00,94.8,69.4,29.49,WNW,293,0.0,0.0,44,0.00,,,0.00,WUHU216HW,2013-05-22 18:02:00,
2013-05-22 14:07:00,95.1,70.4,29.49,SW,225,0.6,6.4,45,0.00,,,0.00,WUHU216HW,2013-05-22 18:07:00,
2013-05-22 14:12:00,95.5,70.0,29.49,SE,135,0.0,6.4,44,0.00,,,0.00,WUHU216HW,2013-05-22 18:12:00,
2013-05-22 14:17:00,95.7,69.5,29.49,SE,135,0.0,3.8,43,0.00,,,0.00,WUHU216HW,2013-05-22 18:17:00,
2013-05-22 14:22:00,95.7,69.5,29.49,WNW,293,0.0,4.4,43,0.00,,,0.00,WUHU216HW,2013-05-22 18:22:00,
2013-05-22 14:27:00,95.5,68.7,29.48,ESE,113,0.0,8.7,42,0.00,,,0.00,WUHU216HW,2013-05-22 18:27:00,
2013-05-22 14:32:00,95.3,68.5,29.49,East,90,0.0,8.7,42,0.00,,,0.00,WUHU216HW,2013-05-22 18:32:00,
2013-05-22 14:37:00,95.5,69.4,29.49,SSW,203,1.7,4.4,43,0.00,,,0.00,WUHU216HW,2013-05-22 18:37:00,
2013-05-22 14:42:00,95.9,69.0,29.48,SE,135,0.0,1.7,42,0.00,,,0.00,WUHU216HW,2013-05-22 18:42:00,
2013-05-22 14:47:00,95.9,69.0,29.48,South,180,0.0,0.6,42,0.00,,,0.00,WUHU216HW,2013-05-22 18:47:00,
2013-05-22 14:52:00,95.9,68.3,29.48,SE,135,0.0,9.1,41,0.00,,,0.00,WUHU216HW,2013-05-22 18:52:00,
2013-05-22 14:57:00,95.7,69.5,29.47,NE,45,4.9,9.1,43,0.00,,,0.00,WUHU216HW,2013-05-22 18:57:00,
2013-05-22 15:02:00,95.7,68.3,29.48,SSW,203,0.8,4.9,41,0.00,,,0.00,WUHU216HW,2013-05-22 19:02:00,
2013-05-22 15:07:00,95.7,66.7,29.47,ESE,113,2.9,12.0,39,0.00,,,0.00,WUHU216HW,2013-05-22 19:07:00,
2013-05-22 15:13:00,95.7,67.5,29.47,East,90,7.6,12.0,40,0.00,,,0.00,WUHU216HW,2013-05-22 19:13:00,
2013-05-22 15:18:00,95.5,68.0,29.47,South,180,3.5,7.6,41,0.00,,,0.00,WUHU216HW,2013-05-22 19:18:00,
2013-05-22 15:23:00,95.7,68.9,29.47,NE,45,0.0,4.4,42,0.00,,,0.00,WUHU216HW,2013-05-22 19:23:00,
2013-05-22 15:28:00,96.0,68.5,29.47,WSW,248,1.5,3.5,41,0.00,,,0.00,WUHU216HW,2013-05-22 19:28:00,
2013-05-22 15:33:00,96.0,68.5,29.47,SSW,203,0.0,5.3,41,0.00,,,0.00,WUHU216HW,2013-05-22 19:33:00,
2013-05-22 15:38:00,96.0,68.5,29.46,East,90,2.4,6.0,41,0.00,,,0.00,WUHU216HW,2013-05-22 19:38:00,
2013-05-22 15:43:00,95.9,69.0,29.46,South,180,0.0,7.1,43,0.00,,,0.00,WUHU216HW,2013-05-22 19:43:00,
2013-05-22 15:48:00,95.9,69.0,29.46,East,90,10.5,10.5,42,0.00,,,0.00,WUHU216HW,2013-05-22 19:48:00,
2013-05-22 15:53:00,94.8,68.7,29.46,ESE,113,0.0,10.5,43,0.00,,,0.00,WUHU216HW,2013-05-22 19:53:00,
2013-05-22 15:58:00,94.8,69.4,29.45,WSW,248,0.0,5.3,44,0.00,,,0.00,WUHU216HW,2013-05-22 19:58:00,
2013-05-22 16:03:00,95.1,69.0,29.45,South,180,2.0,3.5,43,0.00,,,0.00,WUHU216HW,2013-05-22 20:03:00,
2013-05-22 16:08:00,95.1,69.7,29.45,SSE,158,2.9,3.5,44,0.00,,,0.00,WUHU216HW,2013-05-22 20:08:00,
2013-05-22 16:13:00,95.3,69.9,29.45,SW,225,1.3,2.9,44,0.00,,,0.00,WUHU216HW,2013-05-22 20:13:00,
2013-05-22 16:18:00,95.3,69.2,29.45,ENE,68,3.3,3.3,43,0.00,,,0.00,WUHU216HW,2013-05-22 20:18:00,
2013-05-22 16:23:00,95.3,68.5,29.44,SSW,203,13.6,14.0,42,0.00,,,0.00,WUHU216HW,2013-05-22 20:23:00,
2013-05-22 16:28:00,95.1,69.0,29.45,East,90,0.0,14.0,43,0.00,,,0.00,WUHU216HW,2013-05-22 20:28:00,
2013-05-22 16:33:00,95.1,68.4,29.44,ENE,68,0.0,13.6,42,0.00,,,0.00,WUHU216HW,2013-05-22 20:33:00,
2013-05-22 16:38:00,95.0,67.5,29.44,ENE,68,0.0,6.4,41,0.00,,,0.00,WUHU216HW,2013-05-22 20:38:00,
2013-05-22 16:43:00,94.6,67.2,29.44,SSW,203,0.0,6.4,41,0.00,,,0.00,WUHU216HW,2013-05-22 20:43:00,
2013-05-22 16:48:00,94.6,66.5,29.44,SSE,158,2.0,8.2,40,0.00,,,0.00,WUHU216HW,2013-05-22 20:48:00,
2013-05-22 16:54:00,94.4,67.7,29.44,ESE,113,0.0,8.2,42,0.00,,,0.00,WUHU216HW,2013-05-22 20:54:00,
2013-05-22 16:59:00,94.2,66.9,29.44,WSW,248,0.0,4.9,41,0.00,,,0.00,WUHU216HW,2013-05-22 20:59:00,
2013-05-22 17:04:00,94.2,66.2,29.44,ESE,113,3.5,4.9,40,0.00,,,0.00,WUHU216HW,2013-05-22 21:04:00,
2013-05-22 17:09:00,94.1,66.7,29.44,SE,135,0.0,5.1,41,0.00,,,0.00,WUHU216HW,2013-05-22 21:09:00,
2013-05-22 17:14:00,93.0,66.4,29.44,NE,45,0.0,7.8,42,0.00,,,0.00,WUHU216HW,2013-05-22 21:14:00,
2013-05-22 17:19:00,91.7,66.5,29.44,East,90,8.2,8.2,44,0.00,,,0.00,WUHU216HW,2013-05-22 21:19:00,
2013-05-22 17:24:00,91.0,66.5,29.44,SE,135,0.0,8.2,45,0.00,,,0.00,WUHU216HW,2013-05-22 21:24:00,
2013-05-22 17:29:00,89.7,66.1,29.44,East,90,0.0,0.0,46,0.00,,,0.00,WUHU216HW,2013-05-22 21:29:00,
2013-05-22 17:34:00,88.8,65.4,29.44,SW,225,0.0,0.0,46,0.00,,,0.00,WUHU216HW,2013-05-22 21:34:00,
2013-05-22 17:39:00,88.3,64.8,29.44,SW,225,0.0,0.0,47,0.00,,,0.00,WUHU216HW,2013-05-22 21:39:00,
2013-05-22 17:44:00,87.9,65.1,29.44,West,270,0.0,0.0,47,0.00,,,0.00,WUHU216HW,2013-05-22 21:44:00,
2013-05-22 17:49:00,87.6,65.4,29.44,ESE,113,0.0,2.0,48,0.00,,,0.00,WUHU216HW,2013-05-22 21:49:00,
2013-05-22 17:54:00,87.2,65.8,29.45,SE,135,0.0,2.0,49,0.00,,,0.00,WUHU216HW,2013-05-22 21:54:00,
2013-05-22 17:59:00,87.0,66.2,29.45,SW,225,0.0,0.8,50,0.00,,,0.00,WUHU216HW,2013-05-22 21:59:00,
2013-05-22 18:05:00,86.7,66.4,29.45,SW,225,0.0,0.0,51,0.00,,,0.00,WUHU216HW,2013-05-22 22:05:00,
2013-05-22 18:10:00,86.3,66.6,29.45,SSW,203,0.0,0.0,52,0.00,,,0.00,WUHU216HW,2013-05-22 22:10:00,
2013-05-22 18:15:00,86.1,67.0,29.46,South,180,0.8,0.8,53,0.00,,,0.00,WUHU216HW,2013-05-22 22:15:00,
2013-05-22 18:20:00,85.8,67.2,29.46,WSW,248,2.0,2.0,54,0.00,,,0.00,WUHU216HW,2013-05-22 22:20:00,
2013-05-22 18:25:00,85.6,65.4,29.48,South,180,2.4,16.7,51,0.00,,,0.00,WUHU216HW,2013-05-22 22:25:00,
2013-05-22 18:30:00,82.5,62.5,29.48,WSW,248,2.2,16.7,51,0.00,,,0.00,WUHU216HW,2013-05-22 22:30:00,
2013-05-22 18:35:00,80.7,61.9,29.49,WSW,248,0.0,10.9,53,0.00,,,0.00,WUHU216HW,2013-05-22 22:35:00,
2013-05-22 18:40:00,79.5,61.3,29.51,SE,135,8.5,13.6,54,0.00,,,0.00,WUHU216HW,2013-05-22 22:40:00,
2013-05-22 18:45:00,78.2,63.3,29.52,NW,315,0.0,13.6,60,0.12,,,0.10,WUHU216HW,2013-05-22 22:45:00,
2013-05-22 18:50:00,76.6,63.0,29.52,SSE,158,0.0,2.9,63,0.22,,,0.21,WUHU216HW,2013-05-22 22:50:00,
2013-05-22 18:55:00,75.0,63.7,29.52,NE,45,0.0,2.9,68,0.30,,,0.31,WUHU216HW,2013-05-22 22:55:00,
2013-05-22 19:01:00,72.8,63.3,29.51,South,180,0.0,0.0,72,0.39,,,0.39,WUHU216HW,2013-05-22 23:01:00,
2013-05-22 19:06:00,72.1,63.0,29.50,South,180,0.0,0.0,73,0.39,,,0.39,WUHU216HW,2013-05-22 23:06:00,
2013-05-22 19:11:00,71.4,64.1,29.49,NE,45,0.0,0.0,78,0.41,,,0.41,WUHU216HW,2013-05-22 23:11:00,
2013-05-22 19:16:00,71.0,64.2,29.49,ENE,68,0.0,0.0,79,0.41,,,0.41,WUHU216HW,2013-05-22 23:16:00,
2013-05-22 19:21:00,70.8,64.0,29.50,ENE,68,0.0,0.0,79,0.41,,,0.41,WUHU216HW,2013-05-22 23:21:00,
2013-05-22 19:26:00,70.8,64.7,29.50,ENE,68,0.0,0.0,81,0.41,,,0.41,WUHU216HW,2013-05-22 23:26:00,
2013-05-22 19:31:00,71.2,65.4,29.50,ENE,68,0.0,0.0,82,0.41,,,0.41,WUHU216HW,2013-05-22 23:31:00,
2013-05-22 19:36:00,71.2,65.7,29.50,East,90,0.0,0.0,83,0.41,,,0.41,WUHU216HW,2013-05-22 23:36:00,
2013-05-22 19:41:00,71.4,65.9,29.50,East,90,0.0,0.0,83,0.35,,,0.41,WUHU216HW,2013-05-22 23:41:00,
2013-05-22 19:46:00,71.7,65.8,29.51,SSE,158,0.0,0.0,82,0.20,,,0.41,WUHU216HW,2013-05-22 23:46:00,
2013-05-22 19:51:00,71.7,65.6,29.52,SW,225,0.0,0.0,81,0.08,,,0.41,WUHU216HW,2013-05-22 23:51:00,
2013-05-22 19:57:00,71.6,65.8,29.51,ENE,68,0.0,0.0,82,0.02,,,0.41,WUHU216HW,2013-05-22 23:57:00,
2013-05-22 20:02:00,71.4,65.6,29.52,SSE,158,0.0,0.0,82,0.02,,,0.41,WUHU216HW,2013-05-23 00:02:00,
2013-05-22 20:07:00,71.4,65.2,29.51,SE,135,0.0,0.0,81,0.02,,,0.41,WUHU216HW,2013-05-23 00:07:00,
2013-05-22 20:12:00,71.4,65.9,29.50,NNE,23,0.0,0.0,83,0.00,,,0.41,WUHU216HW,2013-05-23 00:12:00,
2013-05-22 20:17:00,71.2,65.7,29.50,ENE,68,1.3,1.3,83,0.00,,,0.41,WUHU216HW,2013-05-23 00:17:00,
2013-05-22 20:22:00,70.8,65.4,29.50,ENE,68,0.0,1.3,83,0.00,,,0.41,WUHU216HW,2013-05-23 00:22:00,
2013-05-22 20:27:00,70.7,65.2,29.50,NE,45,0.0,0.0,83,0.00,,,0.41,WUHU216HW,2013-05-23 00:27:00,
2013-05-22 20:32:00,70.7,65.2,29.51,SW,225,0.0,0.0,83,0.00,,,0.41,WUHU216HW,2013-05-23 00:32:00,
2013-05-22 20:37:00,70.7,64.9,29.51,ESE,113,0.0,0.0,82,0.00,,,0.41,WUHU216HW,2013-05-23 00:37:00,
2013-05-22 20:42:00,70.5,64.7,29.51,SSE,158,0.0,0.0,82,0.00,,,0.41,WUHU216HW,2013-05-23 00:42:00,
2013-05-22 20:47:00,70.3,64.5,29.50,ENE,68,1.7,1.7,82,0.00,,,0.41,WUHU216HW,2013-05-23 00:47:00,
2013-05-22 20:52:00,70.1,63.6,29.49,NE,45,1.1,5.1,80,0.00,,,0.41,WUHU216HW,2013-05-23 00:52:00,
2013-05-22 20:57:00,69.6,63.4,29.48,NE,45,0.0,5.1,81,0.02,,,0.43,WUHU216HW,2013-05-23 00:57:00,
2013-05-22 21:02:00,69.0,63.3,29.49,ENE,68,0.0,4.4,82,0.02,,,0.43,WUHU216HW,2013-05-23 01:02:00,
2013-05-22 21:07:00,69.0,63.3,29.49,NNE,23,0.0,0.0,82,0.02,,,0.43,WUHU216HW,2013-05-23 01:07:00,
2013-05-22 21:12:00,68.9,63.1,29.51,WSW,248,0.0,0.0,82,0.02,,,0.43,WUHU216HW,2013-05-23 01:12:00,
2013-05-22 21:17:00,68.9,63.1,29.51,ESE,113,0.0,0.0,82,0.02,,,0.43,WUHU216HW,2013-05-23 01:17:00,
2013-05-22 21:22:00,68.7,63.3,29.54,SW,225,0.0,0.0,83,0.02,,,0.43,WUHU216HW,2013-05-23 01:22:00,
2013-05-22 21:27:00,68.7,63.6,29.54,ESE,113,0.0,0.0,84,0.02,,,0.43,WUHU216HW,2013-05-23 01:27:00,
2013-05-22 21:32:00,68.7,63.6,29.55,ESE,113,0.0,0.0,84,0.02,,,0.43,WUHU216HW,2013-05-23 01:32:00,
2013-05-22 21:37:00,68.7,63.6,29.55,ESE,113,0.0,0.0,84,0.02,,,0.43,WUHU216HW,2013-05-23 01:37:00,
2013-05-22 21:42:00,68.9,63.8,29.56,SSE,158,0.0,0.0,84,0.02,,,0.43,WUHU216HW,2013-05-23 01:42:00,
2013-05-22 21:47:00,68.9,64.1,29.56,SSW,203,0.0,0.0,85,0.02,,,0.43,WUHU216HW,2013-05-23 01:47:00,
2013-05-22 21:53:00,69.0,64.3,29.56,SSW,203,0.0,3.8,85,0.00,,,0.43,WUHU216HW,2013-05-23 01:53:00,
2013-05-22 21:58:00,68.9,64.1,29.56,SSW,203,0.0,3.8,85,0.00,,,0.43,WUHU216HW,2013-05-23 01:58:00,
2013-05-22 22:03:00,68.9,64.1,29.56,SSW,203,0.0,0.8,85,0.00,,,0.43,WUHU216HW,2013-05-23 02:03:00,
2013-05-22 22:08:00,68.7,64.0,29.57,SE,135,0.0,0.0,85,0.04,,,0.45,WUHU216HW,2013-05-23 02:08:00,
2013-05-22 22:13:00,68.7,64.0,29.57,SE,135,0.0,1.7,85,0.04,,,0.47,WUHU216HW,2013-05-23 02:13:00,
2013-05-22 22:18:00,68.5,63.8,29.57,SE,135,0.0,1.7,85,0.04,,,0.47,WUHU216HW,2013-05-23 02:18:00,
2013-05-22 22:23:00,68.5,64.1,29.57,East,90,0.0,0.0,86,0.06,,,0.49,WUHU216HW,2013-05-23 02:23:00,
2013-05-22 22:28:00,68.3,63.9,29.56,East,90,0.0,0.0,86,0.06,,,0.49,WUHU216HW,2013-05-23 02:28:00,
2013-05-22 22:33:00,68.1,63.8,29.56,NE,45,0.0,0.0,86,0.08,,,0.51,WUHU216HW,2013-05-23 02:33:00,
2013-05-22 22:38:00,67.8,63.4,29.56,NE,45,0.0,0.0,86,0.10,,,0.51,WUHU216HW,2013-05-23 02:38:00,
2013-05-22 22:43:00,67.8,63.7,29.56,NE,45,0.0,0.0,87,0.10,,,0.53,WUHU216HW,2013-05-23 02:43:00,
2013-05-22 22:48:00,67.6,63.9,29.55,NE,45,0.0,0.0,88,0.10,,,0.53,WUHU216HW,2013-05-23 02:48:00,
2013-05-22 22:53:00,67.2,63.5,29.54,NNE,23,0.0,0.0,88,0.10,,,0.53,WUHU216HW,2013-05-23 02:53:00,
2013-05-22 22:58:00,67.2,63.3,29.54,NNE,23,0.0,0.0,88,0.10,,,0.53,WUHU216HW,2013-05-23 02:58:00,
2013-05-22 23:04:00,67.2,63.5,29.53,NE,45,0.0,0.0,88,0.08,,,0.53,WUHU216HW,2013-05-23 03:04:00,
2013-05-22 23:09:00,67.1,63.3,29.53,NE,45,0.0,0.0,88,0.06,,,0.53,WUHU216HW,2013-05-23 03:09:00,
2013-05-22 23:14:00,67.1,63.7,29.52,NNE,23,0.0,0.0,89,0.06,,,0.53,WUHU216HW,2013-05-23 03:14:00,
2013-05-22 23:19:00,66.9,63.5,29.51,NNE,23,0.0,0.0,89,0.04,,,0.53,WUHU216HW,2013-05-23 03:19:00,
2013-05-22 23:24:00,66.9,63.5,29.51,NNE,23,0.0,0.0,89,0.04,,,0.53,WUHU216HW,2013-05-23 03:24:00,
2013-05-22 23:29:00,66.9,63.5,29.51,ENE,68,0.0,0.0,89,0.02,,,0.53,WUHU216HW,2013-05-23 03:29:00,
2013-05-22 23:34:00,66.9,63.2,29.51,ESE,113,0.0,0.0,88,0.02,,,0.53,WUHU216HW,2013-05-23 03:34:00,
2013-05-22 23:39:00,66.9,63.2,29.51,ENE,68,0.0,0.0,88,0.00,,,0.53,WUHU216HW,2013-05-23 03:39:00,
2013-05-22 23:44:00,66.9,63.2,29.51,ENE,68,0.0,0.0,88,0.00,,,0.53,WUHU216HW,2013-05-23 03:44:00,
2013-05-22 23:49:00,66.9,63.2,29.51,ENE,68,0.0,0.0,88,0.00,,,0.53,WUHU216HW,2013-05-23 03:49:00,
2013-05-22 23:54:00,66.9,63.2,29.51,ENE,68,0.0,0.0,88,0.00,,,0.53,WUHU216HW,2013-05-23 03:54:00,
2013-05-22 23:59:00,66.7,63.0,29.51,ENE,68,0.0,0.0,88,0.00,,,0.53,WUHU216HW,2013-05-23 03:59:00,